When you browse on this site, cookies collect data to enhance your experience and personalize the content and advertising you see.
Visit our Privacy Policy to learn more. By continuing to use the site, you agree to this use of cookies and data.
  • In Romania
  • List of Countries
  • For 7 days
  • Water Temperature
  • Satellite Maps
  • Weather Map
  • Weather Widgets
  • user-avatar
    Login

    Hourly Weather Lankaran

    Today, 17 June, Monday

    Time Temperature Precipitation Wind Pressure Humidity
    00:00 +18°C° 0 mm 1 mps 631 mmHg 56%
    01:00 +18°C° 0 mm 1 mps 631 mmHg 56%
    02:00 +16°C° 0 mm 1 mps 630 mmHg 56%
    03:00 +16°C° 0 mm 1 mps 630 mmHg 56%
    04:00 +18°C° 0 mm 1 mps 631 mmHg 55%
    05:00 +18°C° 0 mm 0 mps 631 mmHg 55%
    06:00 +19°C° 0 mm 0 mps 632 mmHg 54%
    07:00 +20°C° 0 mm 0 mps 632 mmHg 51%
    08:00 +23°C° 0 mm 1 mps 633 mmHg 48%
    09:00 +24°C° 0 mm 1 mps 633 mmHg 45%
    10:00 +25°C° 0 mm 2 mps 633 mmHg 45%
    11:00 +26°C° 0 mm 2 mps 633 mmHg 45%
    12:00 +27°C° 0 mm 3 mps 633 mmHg 46%
    13:00 +26°C° 0.1 mm 3 mps 633 mmHg 48%
    14:00 +26°C° 0.1 mm 4 mps 633 mmHg 50%
    15:00 +26°C° 0.1 mm 4 mps 632 mmHg 53%
    16:00 +24°C° 0.6 mm 3 mps 632 mmHg 56%
    17:00 +23°C° 0.6 mm 2 mps 631 mmHg 59%
    18:00 +22°C° 0.6 mm 1 mps 631 mmHg 63%
    19:00 +20°C° 0 mm 1 mps 631 mmHg 66%
    20:00 +19°C° 0 mm 1 mps 631 mmHg 70%
    21:00 +16°C° 0 mm 1 mps 631 mmHg 73%
    22:00 +16°C° 0 mm 1 mps 631 mmHg 73%
    23:00 +15°C° 0 mm 0 mps 631 mmHg 72%

    Tomorrow, 18 June, Tuesday

    Time Temperature Precipitation Wind Pressure Humidity
    00:00 +15°C° 0 mm 0 mps 631 mmHg 72%
    01:00 +14°C° 0 mm 0 mps 630 mmHg 72%
    02:00 +14°C° 0 mm 0 mps 630 mmHg 71%
    03:00 +14°C° 0 mm 0 mps 630 mmHg 71%
    04:00 +16°C° 0 mm 1 mps 631 mmHg 68%
    05:00 +18°C° 0 mm 1 mps 632 mmHg 66%
    06:00 +19°C° 0 mm 1 mps 632 mmHg 63%
    07:00 +19°C° 0 mm 2 mps 633 mmHg 56%
    08:00 +20°C° 0 mm 2 mps 633 mmHg 49%
    09:00 +22°C° 0 mm 3 mps 634 mmHg 43%
    10:00 +22°C° 0 mm 3 mps 634 mmHg 41%
    11:00 +24°C° 0 mm 3 mps 634 mmHg 40%
    12:00 +23°C° 0 mm 4 mps 633 mmHg 39%
    13:00 +23°C° 0 mm 4 mps 633 mmHg 39%
    14:00 +23°C° 0 mm 4 mps 633 mmHg 39%
    15:00 +23°C° 0 mm 4 mps 632 mmHg 40%
    16:00 +22°C° 0 mm 3 mps 632 mmHg 43%
    17:00 +20°C° 0 mm 3 mps 631 mmHg 47%
    18:00 +19°C° 0 mm 2 mps 631 mmHg 51%
    19:00 +18°C° 0 mm 2 mps 631 mmHg 52%
    20:00 +16°C° 0 mm 1 mps 631 mmHg 53%
    21:00 +15°C° 0 mm 1 mps 631 mmHg 54%
    22:00 +15°C° 0 mm 1 mps 631 mmHg 53%
    23:00 +15°C° 0 mm 1 mps 630 mmHg 52%

    Day after tomorrow, 19 June, Wednesday

    Time Temperature Precipitation Wind Pressure Humidity
    00:00 +15°C° 0 mm 1 mps 630 mmHg 52%
    01:00 +14°C° 0 mm 1 mps 630 mmHg 52%
    02:00 +14°C° 0 mm 1 mps 630 mmHg 52%
    03:00 +14°C° 0 mm 1 mps 630 mmHg 52%
    04:00 +15°C° 0 mm 1 mps 630 mmHg 51%
    05:00 +16°C° 0 mm 1 mps 631 mmHg 51%
    06:00 +18°C° 0 mm 1 mps 631 mmHg 50%
    07:00 +20°C° 0 mm 1 mps 632 mmHg 46%
    08:00 +20°C° 0 mm 2 mps 632 mmHg 41%
    09:00 +23°C° 0 mm 2 mps 633 mmHg 37%
    10:00 +22°C° 0 mm 3 mps 633 mmHg 36%
    11:00 +24°C° 0 mm 3 mps 633 mmHg 36%
    12:00 +25°C° 0 mm 4 mps 633 mmHg 35%
    13:00 +25°C° 0 mm 4 mps 633 mmHg 35%
    14:00 +25°C° 0 mm 4 mps 632 mmHg 35%
    15:00 +25°C° 0 mm 4 mps 632 mmHg 35%
    16:00 +22°C° 0 mm 3 mps 632 mmHg 40%
    17:00 +21°C° 0 mm 3 mps 631 mmHg 45%
    18:00 +20°C° 0 mm 2 mps 631 mmHg 50%
    19:00 +19°C° 0 mm 2 mps 631 mmHg 49%
    20:00 +17°C° 0 mm 2 mps 631 mmHg 48%
    21:00 +16°C° 0 mm 1 mps 631 mmHg 47%
    22:00 +16°C° 0 mm 1 mps 630 mmHg 46%
    23:00 +16°C° 0 mm 1 mps 630 mmHg 46%

    20 June, Thursday

    Time Temperature Precipitation Wind Pressure Humidity
    00:00 +15°C° 0 mm 1 mps 630 mmHg 45%
    01:00 +15°C° 0 mm 1 mps 630 mmHg 45%
    02:00 +15°C° 0 mm 1 mps 630 mmHg 46%
    03:00 +14°C° 0 mm 1 mps 630 mmHg 47%
    04:00 +16°C° 0 mm 1 mps 630 mmHg 48%
    05:00 +18°C° 0 mm 1 mps 631 mmHg 49%
    06:00 +19°C° 0 mm 1 mps 631 mmHg 50%
    07:00 +20°C° 0 mm 1 mps 632 mmHg 45%
    08:00 +21°C° 0 mm 2 mps 632 mmHg 40%
    09:00 +22°C° 0 mm 3 mps 633 mmHg 35%
    10:00 +24°C° 0 mm 3 mps 633 mmHg 35%
    11:00 +24°C° 0 mm 3 mps 633 mmHg 34%
    12:00 +25°C° 0 mm 4 mps 633 mmHg 33%
    13:00 +25°C° 0 mm 4 mps 632 mmHg 33%
    14:00 +25°C° 0 mm 4 mps 632 mmHg 33%
    15:00 +25°C° 0 mm 4 mps 631 mmHg 33%
    16:00 +24°C° 0 mm 3 mps 631 mmHg 36%
    17:00 +22°C° 0 mm 3 mps 630 mmHg 40%
    18:00 +20°C° 0 mm 2 mps 630 mmHg 43%
    19:00 +19°C° 0 mm 2 mps 630 mmHg 43%
    20:00 +18°C° 0 mm 2 mps 630 mmHg 43%
    21:00 +16°C° 0 mm 1 mps 630 mmHg 43%
    22:00 +16°C° 0 mm 1 mps 630 mmHg 45%
    23:00 +16°C° 0 mm 1 mps 630 mmHg 46%

    21 June, Friday

    Time Temperature Precipitation Wind Pressure Humidity
    00:00 +15°C° 0 mm 1 mps 629 mmHg 47%
    01:00 +15°C° 0 mm 1 mps 629 mmHg 51%
    02:00 +15°C° 0 mm 2 mps 629 mmHg 54%
    03:00 +15°C° 0 mm 2 mps 629 mmHg 57%
    04:00 +15°C° 0 mm 2 mps 630 mmHg 58%
    05:00 +16°C° 0 mm 2 mps 630 mmHg 59%
    06:00 +16°C° 0 mm 2 mps 630 mmHg 61%
    07:00 +17°C° 0 mm 2 mps 631 mmHg 56%
    08:00 +19°C° 0 mm 3 mps 631 mmHg 51%
    09:00 +20°C° 0 mm 3 mps 632 mmHg 47%
    10:00 +21°C° 0 mm 4 mps 632 mmHg 46%
    11:00 +21°C° 0 mm 4 mps 632 mmHg 45%
    12:00 +22°C° 0 mm 4 mps 632 mmHg 44%
    13:00 +22°C° 0 mm 5 mps 632 mmHg 45%
    14:00 +22°C° 0 mm 5 mps 632 mmHg 46%
    15:00 +21°C° 0 mm 5 mps 631 mmHg 48%
    16:00 +20°C° 0 mm 4 mps 631 mmHg 52%
    17:00 +19°C° 0 mm 4 mps 631 mmHg 57%
    18:00 +18°C° 0 mm 3 mps 631 mmHg 61%
    19:00 +17°C° 0 mm 3 mps 631 mmHg 63%
    20:00 +16°C° 0 mm 2 mps 631 mmHg 66%
    21:00 +15°C° 0 mm 2 mps 631 mmHg 68%
    22:00 +14°C° 0 mm 2 mps 631 mmHg 66%
    23:00 +14°C° 0 mm 2 mps 631 mmHg 64%

    22 June, Saturday

    Time Temperature Precipitation Wind Pressure Humidity
    00:00 +14°C° 0 mm 2 mps 631 mmHg 62%
    01:00 +13°C° 0 mm 2 mps 631 mmHg 63%
    02:00 +13°C° 0 mm 2 mps 631 mmHg 64%
    03:00 +13°C° 0 mm 1 mps 631 mmHg 64%
    04:00 +14°C° 0 mm 1 mps 632 mmHg 62%
    05:00 +15°C° 0 mm 1 mps 632 mmHg 59%
    06:00 +16°C° 0 mm 1 mps 633 mmHg 57%
    07:00 +18°C° 0 mm 2 mps 633 mmHg 52%
    08:00 +19°C° 0 mm 2 mps 634 mmHg 48%
    09:00 +21°C° 0 mm 3 mps 635 mmHg 44%
    10:00 +22°C° 0 mm 3 mps 635 mmHg 43%
    11:00 +23°C° 0 mm 4 mps 635 mmHg 42%
    12:00 +23°C° 0 mm 5 mps 635 mmHg 40%
    13:00 +23°C° 0 mm 5 mps 635 mmHg 41%
    14:00 +25°C° 0 mm 5 mps 635 mmHg 41%
    15:00 +25°C° 0 mm 5 mps 634 mmHg 42%
    16:00 +22°C° 0 mm 4 mps 634 mmHg 47%
    17:00 +21°C° 0 mm 4 mps 634 mmHg 52%
    18:00 +20°C° 0 mm 3 mps 634 mmHg 57%
    19:00 +19°C° 0 mm 3 mps 634 mmHg 60%
    20:00 +17°C° 0 mm 2 mps 633 mmHg 62%
    21:00 +16°C° 0 mm 2 mps 633 mmHg 65%
    22:00 +16°C° 0 mm 2 mps 633 mmHg 63%
    23:00 +16°C° 0 mm 1 mps 633 mmHg 61%
    Show more